Kenai, AK

8:21 AM AKST on December 12, 2019 (GMT -0900)
Kenai Municipal

Weather History for PAEN - October, 2019

Change the Weather History Date:

Tuesday, October 15, 2019

  Actual Average Record
Temperature  
Mean Temperature 31 °F -  
Max Temperature 39 °F 43 °F 61 °F (1969)
Min Temperature 23 °F 28 °F 1 °F (1996)
Degree Days  
Heating Degree Days 34    
Moisture  
Dew Point 19 °F    
Average Humidity 62    
Maximum Humidity 78    
Minimum Humidity 41    
Precipitation  
Precipitation 0.00 in - - ()
Sea Level Pressure  
Sea Level Pressure 29.28 in    
Wind  
Wind Speed 7 mph (NE)    
Max Wind Speed 15 mph    
Max Gust Speed -    
Visibility 10 miles    
Events      
Averages and records for this station are not official NWS values.
T = Trace of Precipitation, MM = Missing Value Source: NWS Daily Summary

Daily Weather History Graph

Daily Weather History Graph

Search for Another Location

Airport or City:

Astronomy

Oct. 15, 2019 Rise Set
Actual Time 8:45 AM AKDT 6:54 PM AKDT
Civil Twilight 8:02 AM AKDT 7:37 PM AKDT
Nautical Twilight 7:13 AM AKDT 8:26 PM AKDT
Astronomical Twilight 6:24 AM AKDT 9:15 PM AKDT
Moon 7:56 PM AKDT (10/15) 10:44 AM AKDT (10/15)
Length of Visible Light 11h 34m
Length of Day
10h 08m
Waning Gibbous, 96% of the Moon is Illuminated
Oct 15
Waning Gibbous
Oct 21
Last Quarter
Oct 27
New
Nov 4
First Quarter
Nov 12
Full

Hourly Weather History & Observations

Time (AKDT) Temp. Windchill Dew Point Humidity Pressure Visibility Wind Dir Wind Speed Gust Speed Precip Events Conditions
12:53 AM 27.0 °F 18.0 °F 19.0 °F 72% 29.38 in 10.0 mi East 9.2 mph - N/A   Clear
1:53 AM 25.0 °F 15.5 °F 19.0 °F 78% 29.34 in 10.0 mi NNE 9.2 mph - N/A   Clear
2:53 AM 26.1 °F 19.4 °F 19.0 °F 75% 29.32 in 10.0 mi NE 5.8 mph - N/A   Clear
3:53 AM 26.1 °F 18.4 °F 18.0 °F 71% 29.30 in 10.0 mi NE 6.9 mph - N/A   Clear
4:53 AM 25.0 °F - 18.0 °F 75% 29.28 in 10.0 mi Calm Calm - N/A   Clear
5:53 AM 25.0 °F 17.1 °F 16.0 °F 69% 29.25 in 10.0 mi ENE 6.9 mph - N/A   Clear
6:53 AM 27.0 °F 19.5 °F 17.1 °F 66% 29.24 in 10.0 mi NE 6.9 mph - N/A   Clear
7:53 AM 23.0 °F 18.4 °F 15.1 °F 72% 29.24 in 10.0 mi ENE 3.5 mph - N/A   Clear
8:53 AM 23.0 °F 15.8 °F 14.0 °F 68% 29.23 in 10.0 mi NE 5.8 mph - N/A   Scattered Clouds
9:53 AM 25.0 °F 17.1 °F 16.0 °F 69% 29.23 in 10.0 mi ENE 6.9 mph - N/A   Partly Cloudy
10:53 AM 28.0 °F 22.8 °F 19.0 °F 69% 29.24 in 10.0 mi ENE 4.6 mph - N/A   Scattered Clouds
11:53 AM 34.0 °F 27.2 °F 21.0 °F 59% 29.25 in 10.0 mi NE 8.1 mph - N/A   Mostly Cloudy
1:53 PM 39.9 °F 32.5 °F 18.0 °F 41% 29.25 in 10.0 mi NE 12.7 mph - N/A   Scattered Clouds
2:53 PM 39.2 °F 31.6 °F 17.6 °F 42% 29.24 in 10.0 mi NNE 12.7 mph - N/A   Overcast
3:53 PM 39.9 °F 31.8 °F 18.0 °F 41% 29.26 in 10.0 mi NNE 15.0 mph - N/A   Overcast
4:53 PM 39.0 °F 32.3 °F 19.9 °F 46% 29.27 in 10.0 mi NE 10.4 mph - N/A   Overcast
5:53 PM 37.9 °F 32.7 °F 21.0 °F 51% 29.28 in 10.0 mi NE 6.9 mph - N/A   Overcast
6:53 PM 37.0 °F 32.4 °F 19.9 °F 50% 29.29 in 10.0 mi NE 5.8 mph - N/A   Overcast
7:53 PM 35.1 °F 32.2 °F 21.0 °F 57% 29.31 in 10.0 mi North 3.5 mph - N/A   Overcast
8:53 PM 34.0 °F 31.0 °F 21.0 °F 59% 29.31 in 10.0 mi North 3.5 mph - N/A   Overcast
10:53 PM 32.0 °F - 23.0 °F 69% 29.33 in 10.0 mi Calm Calm - N/A   Overcast
11:53 PM 32.0 °F - 24.1 °F 73% 29.34 in 10.0 mi Calm Calm - N/A   Overcast